Hourly Weather Chandpur

Today, 15 June, Tuesday

Time Temperature Precipitation Wind Pressure Humidity
00:00 +31°C° 0 mm 3 mps 727 mmHg 60%
01:00 +31°C° 0 mm 3 mps 727 mmHg 63%
02:00 +30°C° 0 mm 2 mps 727 mmHg 66%
03:00 +30°C° 0 mm 2 mps 727 mmHg 68%
04:00 +30°C° 0 mm 2 mps 727 mmHg 70%
05:00 +29°C° 0 mm 1 mps 727 mmHg 72%
06:00 +31°C° 0 mm 1 mps 727 mmHg 66%
07:00 +32°C° 0 mm 2 mps 727 mmHg 59%
08:00 +34°C° 0 mm 2 mps 727 mmHg 53%
09:00 +35°C° 0 mm 1 mps 727 mmHg 47%
10:00 +37°C° 0 mm 1 mps 727 mmHg 41%
11:00 +40°C° 0 mm 1 mps 727 mmHg 34%
12:00 +41°C° 0 mm 1 mps 726 mmHg 30%
13:00 +42°C° 0 mm 1 mps 725 mmHg 26%
14:00 +44°C° 0 mm 1 mps 725 mmHg 22%
15:00 +43°C° 0 mm 2 mps 724 mmHg 23%
16:00 +43°C° 0 mm 3 mps 724 mmHg 24%
17:00 +43°C° 0 mm 5 mps 723 mmHg 25%
18:00 +40°C° 0.2 mm 5 mps 724 mmHg 34%
19:00 +37°C° 0.2 mm 5 mps 725 mmHg 44%
20:00 +34°C° 0.2 mm 5 mps 726 mmHg 53%
21:00 +33°C° 2.3 mm 4 mps 727 mmHg 57%
22:00 +31°C° 2.3 mm 3 mps 728 mmHg 62%
23:00 +30°C° 2.3 mm 2 mps 728 mmHg 66%

Tomorrow, 16 June, Wednesday

Time Temperature Precipitation Wind Pressure Humidity
00:00 +29°C° 0.4 mm 3 mps 728 mmHg 68%
01:00 +29°C° 0.4 mm 3 mps 728 mmHg 69%
02:00 +29°C° 0.4 mm 4 mps 728 mmHg 70%
03:00 +29°C° 0.1 mm 3 mps 728 mmHg 71%
04:00 +29°C° 0.1 mm 3 mps 728 mmHg 71%
05:00 +28°C° 0.1 mm 2 mps 728 mmHg 72%
06:00 +29°C° 0 mm 3 mps 729 mmHg 68%
07:00 +30°C° 0 mm 3 mps 729 mmHg 65%
08:00 +32°C° 0 mm 4 mps 729 mmHg 61%
09:00 +34°C° 0 mm 3 mps 729 mmHg 55%
10:00 +36°C° 0 mm 2 mps 730 mmHg 49%
11:00 +37°C° 0 mm 2 mps 730 mmHg 44%
12:00 +38°C° 0 mm 2 mps 729 mmHg 41%
13:00 +39°C° 0 mm 2 mps 729 mmHg 39%
14:00 +40°C° 0 mm 3 mps 728 mmHg 37%
15:00 +39°C° 0.1 mm 3 mps 728 mmHg 36%
16:00 +39°C° 0.1 mm 3 mps 727 mmHg 36%
17:00 +38°C° 0.1 mm 3 mps 727 mmHg 36%
18:00 +37°C° 0 mm 3 mps 727 mmHg 40%
19:00 +36°C° 0 mm 2 mps 728 mmHg 44%
20:00 +34°C° 0 mm 2 mps 728 mmHg 48%
21:00 +34°C° 0 mm 2 mps 729 mmHg 51%
22:00 +33°C° 0 mm 3 mps 729 mmHg 53%
23:00 +33°C° 0 mm 4 mps 729 mmHg 56%

Day after tomorrow, 17 June, Thursday

Time Temperature Precipitation Wind Pressure Humidity
00:00 +32°C° 0 mm 4 mps 729 mmHg 61%
01:00 +30°C° 0 mm 3 mps 729 mmHg 66%
02:00 +30°C° 0 mm 3 mps 729 mmHg 70%
03:00 +29°C° 0 mm 2 mps 729 mmHg 72%
04:00 +29°C° 0 mm 2 mps 730 mmHg 73%
05:00 +29°C° 0 mm 1 mps 730 mmHg 74%
06:00 +30°C° 0 mm 2 mps 730 mmHg 69%
07:00 +32°C° 0 mm 2 mps 730 mmHg 63%
08:00 +34°C° 0 mm 2 mps 731 mmHg 58%
09:00 +36°C° 0 mm 2 mps 731 mmHg 52%
10:00 +36°C° 0 mm 1 mps 730 mmHg 46%
11:00 +39°C° 0 mm 1 mps 730 mmHg 40%
12:00 +40°C° 0 mm 1 mps 730 mmHg 35%
13:00 +41°C° 0 mm 2 mps 729 mmHg 31%
14:00 +42°C° 0 mm 2 mps 728 mmHg 27%
15:00 +42°C° 0 mm 2 mps 728 mmHg 26%
16:00 +42°C° 0 mm 2 mps 728 mmHg 25%
17:00 +42°C° 0 mm 2 mps 727 mmHg 24%
18:00 +40°C° 0 mm 3 mps 728 mmHg 29%
19:00 +39°C° 0 mm 3 mps 728 mmHg 34%
20:00 +37°C° 0 mm 3 mps 728 mmHg 39%
21:00 +36°C° 0 mm 3 mps 729 mmHg 44%
22:00 +36°C° 0 mm 3 mps 729 mmHg 48%
23:00 +35°C° 0 mm 4 mps 729 mmHg 52%

18 June, Friday

Time Temperature Precipitation Wind Pressure Humidity
00:00 +34°C° 0 mm 3 mps 729 mmHg 55%
01:00 +34°C° 0 mm 3 mps 729 mmHg 57%
02:00 +32°C° 0 mm 2 mps 729 mmHg 59%
03:00 +32°C° 0 mm 2 mps 729 mmHg 61%
04:00 +32°C° 0 mm 2 mps 729 mmHg 62%
05:00 +31°C° 0 mm 2 mps 729 mmHg 63%
06:00 +34°C° 0 mm 2 mps 729 mmHg 58%
07:00 +35°C° 0 mm 2 mps 729 mmHg 53%
08:00 +37°C° 0 mm 2 mps 730 mmHg 48%
09:00 +38°C° 0 mm 2 mps 730 mmHg 42%
10:00 +40°C° 0 mm 1 mps 730 mmHg 35%
11:00 +42°C° 0 mm 1 mps 729 mmHg 29%
12:00 +43°C° 0 mm 1 mps 729 mmHg 26%
13:00 +43°C° 0 mm 1 mps 729 mmHg 24%
14:00 +44°C° 0 mm 1 mps 728 mmHg 22%
15:00 +44°C° 0 mm 3 mps 728 mmHg 25%
16:00 +43°C° 0 mm 4 mps 728 mmHg 27%
17:00 +41°C° 0 mm 5 mps 728 mmHg 30%
18:00 +40°C° 0 mm 5 mps 728 mmHg 36%
19:00 +39°C° 0 mm 6 mps 729 mmHg 42%
20:00 +36°C° 0 mm 6 mps 730 mmHg 48%
21:00 +36°C° 0 mm 6 mps 730 mmHg 51%
22:00 +35°C° 0 mm 5 mps 731 mmHg 55%
23:00 +34°C° 0 mm 5 mps 731 mmHg 59%

19 June, Saturday

Time Temperature Precipitation Wind Pressure Humidity
00:00 +33°C° 0 mm 5 mps 731 mmHg 61%
01:00 +32°C° 0 mm 5 mps 731 mmHg 63%
02:00 +32°C° 0 mm 4 mps 730 mmHg 65%
03:00 +30°C° 0 mm 4 mps 731 mmHg 67%
04:00 +30°C° 0 mm 4 mps 731 mmHg 69%
05:00 +30°C° 0 mm 4 mps 731 mmHg 71%
06:00 +32°C° 0 mm 4 mps 731 mmHg 67%
07:00 +33°C° 0 mm 4 mps 731 mmHg 63%
08:00 +34°C° 0 mm 4 mps 732 mmHg 59%
09:00 +35°C° 0 mm 3 mps 731 mmHg 53%
10:00 +37°C° 0 mm 3 mps 731 mmHg 47%
11:00 +39°C° 0 mm 2 mps 731 mmHg 42%
12:00 +40°C° 0 mm 2 mps 730 mmHg 37%
13:00 +41°C° 0 mm 2 mps 730 mmHg 32%
14:00 +42°C° 0 mm 2 mps 729 mmHg 27%
15:00 +42°C° 0 mm 2 mps 729 mmHg 26%
16:00 +42°C° 0 mm 2 mps 728 mmHg 26%
17:00 +42°C° 0 mm 1 mps 728 mmHg 26%
18:00 +40°C° 0.1 mm 3 mps 728 mmHg 33%
19:00 +39°C° 0.1 mm 5 mps 729 mmHg 41%
20:00 +36°C° 0.1 mm 7 mps 729 mmHg 49%
21:00 +35°C° 0.1 mm 7 mps 730 mmHg 53%
22:00 +34°C° 0.1 mm 7 mps 730 mmHg 58%
23:00 +33°C° 0.1 mm 8 mps 731 mmHg 63%

20 June, Sunday

Time Temperature Precipitation Wind Pressure Humidity
00:00 +32°C° 0.2 mm 7 mps 731 mmHg 67%
01:00 +30°C° 0.2 mm 7 mps 731 mmHg 70%
02:00 +30°C° 0.2 mm 6 mps 731 mmHg 74%
03:00 +29°C° 0.3 mm 6 mps 731 mmHg 75%
04:00 +29°C° 0.3 mm 5 mps 731 mmHg 77%
05:00 +28°C° 0.3 mm 5 mps 731 mmHg 79%
06:00 +29°C° 0 mm 5 mps 731 mmHg 74%
07:00 +30°C° 0 mm 5 mps 732 mmHg 70%
08:00 +32°C° 0 mm 5 mps 732 mmHg 66%
09:00 +34°C° 0 mm 4 mps 732 mmHg 60%
10:00 +36°C° 0 mm 3 mps 732 mmHg 54%
11:00 +37°C° 0 mm 3 mps 731 mmHg 47%
12:00 +39°C° 0 mm 2 mps 731 mmHg 43%
13:00 +40°C° 0 mm 2 mps 730 mmHg 38%
14:00 +41°C° 0 mm 1 mps 730 mmHg 33%
15:00 +41°C° 0 mm 2 mps 729 mmHg 32%
16:00 +41°C° 0 mm 2 mps 728 mmHg 31%
17:00 +41°C° 0 mm 2 mps 728 mmHg 30%
18:00 +39°C° 0 mm 3 mps 729 mmHg 39%
19:00 +36°C° 0 mm 4 mps 729 mmHg 48%
20:00 +33°C° 0 mm 5 mps 730 mmHg 57%
21:00 +33°C° 0 mm 4 mps 730 mmHg 58%
22:00 +33°C° 0 mm 3 mps 730 mmHg 58%
23:00 +32°C° 0 mm 2 mps 730 mmHg 58%
Show more

We Need Your Consent

Meteoprog and our Service Providers may store and access personal data such as cookies, device identifiers or other similar technologies on your device and process such data to personalise content and ads, as well as provide social media features and to analyse the traffic.

  • Store and/or access information on your device

    Cookies, device identifiers or other information can be stored or accessed on your device for the purposes indicated above.

  • Personalised ads and content, ad and content measurement, audience insights, and products development

    Ads and content can be personalised based on a profile. More data can be added to better personalise ads and content. Ad and content performance can be measured. Insights about the audience who saw the ads and content can be derived. Such data can be used to develop or improve user’s experience, systems and software.

By clicking ‘I Agree’ you will allow the use of indicated cookies, device identifiers, web beacons or other similar technologies. Your settings can be changed in the browser on your device.

For certain purposes, legitimate interests may be relied on, rather than consent. You can read more about this in our Privacy and Cookie Policy.